Precipitable_Water
1.41 1.39 1.47 1.53 1.59 1.52 1.57 1.63 1.70 1.68 1.68 1.70 1.70 1.72 1.71 1.67 1.71 1.80 1.74 1.79 1.74 1.70 1.63 1.65 1.67 1.62 1.56 1.58 1.66 1.69 1.68 1.62 1.65 1.66 1.57 1.50 1.54 1.60 1.71 1.69 1.63 1.63 1.59 1.47 1.55 1.59 1.60 1.59 1.55 1.53 1.57 1.50 1.48 1.49 1.47 1.54 1.69 1.62 1.62 1.60 1.58 1.63 1.55 1.47 1.35 1.32 1.43 1.57 1.50 1.47 1.52 1.52 1.42 1.51 1.54 1.58 1.59 1.59 1.58 1.58 1.61 1.56 1.52 1.52 1.54
1.45 1.42 1.41 1.44 1.50 1.58 1.54 1.59 1.63 1.70 1.74 1.71 1.73 1.75 1.67 1.70 1.74 1.74 1.74 1.75 1.72 1.68 1.64 1.68 1.72 1.68 1.62 1.58 1.59 1.75 1.70 1.67 1.68 1.67 1.61 1.54 1.53 1.59 1.60 1.62 1.59 1.54 1.56 1.53 1.52 1.54 1.52 1.50 1.52 1.49 1.50 1.48 1.50 1.45 1.40 1.39 1.47 1.60 1.68 1.67 1.66 1.66 1.73 1.59 1.50 1.37 1.25 1.39 1.46 1.57 1.49 1.58 1.41 1.58 1.53 1.50 1.49 1.55 1.55 1.59 1.60 1.58 1.53 1.49 1.44
1.45 1.45 1.42 1.39 1.41 1.48 1.55 1.54 1.54 1.61 1.65 1.73 1.68 1.67 1.77 1.74 1.79 1.71 1.65 1.69 1.70 1.72 1.61 1.60 1.68 1.68 1.69 1.67 1.66 1.70 1.76 1.70 1.70 1.68 1.70 1.62 1.56 1.53 1.53 1.58 1.56 1.50 1.45 1.41 1.41 1.49 1.48 1.45 1.45 1.44 1.46 1.40 1.44 1.47 1.50 1.47 1.47 1.51 1.56 1.61 1.56 1.55 1.54 1.56 1.46 1.32 1.30 1.33 1.47 1.42 1.46 1.51 1.45 1.45 1.54 1.59 1.65 1.69 1.62 1.57 1.53 1.48 1.45 1.46 1.45
1.43 1.43 1.41 1.39 1.39 1.43 1.43 1.48 1.48 1.50 1.57 1.66 1.69 1.65 1.79 1.77 1.75 1.72 1.82 1.71 1.66 1.68 1.66 1.61 1.64 1.62 1.60 1.62 1.68 1.71 1.71 1.65 1.61 1.62 1.66 1.67 1.62 1.53 1.53 1.61 1.67 1.63 1.58 1.53 1.57 1.59 1.57 1.56 1.55 1.61 1.56 1.46 1.51 1.54 1.56 1.49 1.45 1.43 1.40 1.49 1.59 1.59 1.62 1.60 1.60 1.47 1.40 1.28 1.40 1.39 1.44 1.42 1.50 1.59 1.65 1.67 1.64 1.63 1.58 1.52 1.48 1.40 1.39 1.46 1.46
1.45 1.45 1.41 1.37 1.37 1.36 1.37 1.41 1.43 1.42 1.41 1.51 1.69 1.77 1.77 1.75 1.80 1.75 1.71 1.77 1.81 1.75 1.68 1.65 1.68 1.63 1.53 1.58 1.62 1.57 1.65 1.65 1.57 1.55 1.57 1.63 1.65 1.63 1.60 1.59 1.61 1.60 1.58 1.58 1.61 1.61 1.59 1.57 1.65 1.64 1.65 1.54 1.46 1.46 1.51 1.50 1.55 1.56 1.58 1.60 1.59 1.58 1.57 1.60 1.54 1.50 1.40 1.32 1.33 1.45 1.50 1.49 1.50 1.49 1.53 1.39 1.38 1.37 1.41 1.41 1.37 1.34 1.37 1.41 1.38
1.47 1.48 1.43 1.38 1.36 1.36 1.37 1.37 1.36 1.39 1.39 1.40 1.50 1.63 1.66 1.78 1.81 1.80 1.77 1.75 1.72 1.81 1.77 1.74 1.73 1.72 1.61 1.60 1.64 1.60 1.57 1.64 1.61 1.56 1.59 1.65 1.68 1.69 1.74 1.71 1.68 1.65 1.66 1.63 1.60 1.58 1.54 1.47 1.46 1.40 1.39 1.42 1.45 1.51 1.56 1.61 1.64 1.61 1.51 1.46 1.48 1.52 1.55 1.53 1.50 1.46 1.40 1.36 1.33 1.28 1.37 1.31 1.30 1.33 1.38 1.35 1.25 1.17 1.18 1.26 1.32 1.32 1.28 1.25 1.26
1.50 1.48 1.43 1.38 1.37 1.39 1.39 1.39 1.35 1.34 1.36 1.37 1.40 1.45 1.60 1.75 1.73 1.82 1.82 1.79 1.77 1.78 1.83 1.81 1.91 1.79 1.75 1.69 1.74 1.74 1.71 1.68 1.70 1.65 1.61 1.72 1.75 1.75 1.70 1.74 1.76 1.70 1.66 1.65 1.74 1.74 1.66 1.70 1.69 1.64 1.59 1.52 1.45 1.42 1.43 1.42 1.44 1.45 1.54 1.59 1.54 1.44 1.39 1.38 1.35 1.30 1.25 1.22 1.23 1.23 1.22 1.31 1.28 1.15 1.23 1.29 1.26 1.25 1.16 1.16 1.13 1.19 1.21 1.20 1.17
1.62 1.54 1.46 1.42 1.39 1.37 1.42 1.44 1.41 1.37 1.37 1.36 1.39 1.41 1.46 1.54 1.60 1.70 1.69 1.71 1.69 1.70 1.75 1.84 1.88 1.89 1.81 1.75 1.83 1.79 1.84 1.77 1.74 1.77 1.73 1.69 1.68 1.70 1.78 1.76 1.77 1.82 1.79 1.72 1.72 1.66 1.61 1.60 1.57 1.56 1.56 1.59 1.54 1.50 1.43 1.37 1.36 1.34 1.41 1.41 1.38 1.32 1.28 1.25 1.19 1.12 1.06 1.03 1.01 1.00 1.06 1.06 1.11 1.23 1.29 1.32 1.25 1.26 1.30 1.10 0.96 1.02 1.13 1.25 1.22
1.87 1.77 1.61 1.48 1.45 1.42 1.41 1.44 1.46 1.43 1.40 1.39 1.33 1.36 1.38 1.43 1.49 1.52 1.55 1.66 1.71 1.70 1.75 1.78 1.82 1.88 1.83 1.83 1.86 1.88 1.92 1.85 1.80 1.77 1.73 1.68 1.71 1.72 1.72 1.77 1.79 1.79 1.75 1.67 1.61 1.57 1.57 1.50 1.44 1.53 1.58 1.66 1.72 1.64 1.56 1.47 1.32 1.22 1.25 1.23 1.19 1.15 1.14 1.10 1.01 0.95 0.96 0.95 0.90 0.96 0.95 0.94 1.01 1.02 1.09 1.14 1.12 1.06 1.04 1.13 1.13 1.15 1.10 0.99 0.99
1.81 1.66 1.75 1.84 1.73 1.62 1.46 1.46 1.45 1.47 1.44 1.43 1.46 1.38 1.36 1.39 1.45 1.47 1.48 1.51 1.55 1.59 1.57 1.60 1.61 1.67 1.75 1.87 1.86 1.78 1.78 1.89 1.87 1.88 1.85 1.80 1.72 1.70 1.65 1.66 1.74 1.74 1.70 1.63 1.62 1.62 1.58 1.49 1.50 1.55 1.58 1.52 1.54 1.55 1.46 1.41 1.38 1.30 1.23 1.19 1.15 1.09 1.09 1.07 1.04 1.02 0.99 0.94 0.94 0.94 0.89 0.88 0.92 0.96 0.96 0.99 0.99 1.06 1.13 1.12 0.99 1.01 0.97 0.97 1.03
1.86 1.85 1.89 1.88 1.84 1.82 1.71 1.58 1.52 1.50 1.62 1.70 1.74 1.62 1.50 1.45 1.45 1.55 1.54 1.52 1.53 1.54 1.56 1.56 1.54 1.54 1.58 1.65 1.67 1.76 1.82 1.77 1.84 1.88 1.83 1.75 1.67 1.59 1.51 1.60 1.77 1.78 1.77 1.66 1.56 1.61 1.57 1.54 1.49 1.47 1.47 1.40 1.45 1.49 1.49 1.50 1.49 1.47 1.41 1.30 1.21 1.12 1.06 1.04 1.04 1.07 1.04 1.02 1.06 1.04 0.99 0.95 0.99 1.06 1.04 1.03 1.09 1.16 1.12 1.14 1.09 1.07 1.06 0.97 0.87
1.66 1.72 1.76 1.71 1.68 1.76 1.86 1.89 1.73 1.74 1.82 1.79 1.82 1.85 1.71 1.69 1.61 1.53 1.52 1.51 1.57 1.62 1.61 1.60 1.62 1.63 1.60 1.59 1.56 1.71 1.72 1.77 1.76 1.71 1.67 1.66 1.67 1.60 1.50 1.48 1.55 1.60 1.66 1.57 1.54 1.54 1.57 1.64 1.63 1.58 1.61 1.80 1.86 1.76 1.73 1.72 1.66 1.59 1.52 1.48 1.44 1.39 1.32 1.22 1.16 1.16 1.17 1.14 1.14 1.18 1.18 1.16 1.18 1.19 1.18 1.21 1.23 1.19 1.24 1.26 1.27 1.23 1.14 1.05 1.03
1.73 1.74 1.75 1.75 1.72 1.77 1.75 1.71 1.74 1.90 1.89 1.90 1.86 1.92 1.82 1.79 1.76 1.66 1.70 1.87 1.89 1.74 1.64 1.61 1.56 1.54 1.54 1.55 1.57 1.60 1.67 1.66 1.72 1.74 1.69 1.66 1.65 1.61 1.55 1.47 1.38 1.41 1.50 1.51 1.54 1.56 1.61 1.67 1.65 1.75 1.74 1.72 1.74 1.77 1.76 1.70 1.59 1.57 1.63 1.65 1.69 1.69 1.63 1.62 1.57 1.43 1.37 1.28 1.22 1.19 1.23 1.26 1.26 1.33 1.44 1.43 1.47 1.34 1.34 1.29 1.30 1.28 1.23 1.16 1.18
1.89 1.88 1.88 1.84 1.84 1.91 1.80 1.68 1.70 1.84 1.90 1.91 1.86 1.78 1.65 1.58 1.64 1.65 1.72 1.82 1.85 1.87 1.82 1.69 1.57 1.51 1.51 1.52 1.52 1.52 1.52 1.60 1.63 1.67 1.69 1.68 1.66 1.63 1.61 1.55 1.49 1.41 1.37 1.41 1.49 1.58 1.67 1.62 1.59 1.58 1.72 1.77 1.80 1.87 1.82 1.77 1.62 1.49 1.47 1.52 1.60 1.72 1.78 1.74 1.65 1.64 1.64 1.60 1.48 1.31 1.39 1.51 1.45 1.51 1.61 1.67 1.58 1.47 1.38 1.31 1.36 1.30 1.27 1.25 1.33
2.00 2.02 1.99 2.00 1.97 1.93 1.88 1.84 1.83 1.88 1.91 1.84 1.76 1.70 1.64 1.56 1.52 1.57 1.59 1.61 1.70 1.76 1.77 1.78 1.78 1.77 1.78 1.74 1.61 1.49 1.48 1.52 1.57 1.59 1.59 1.59 1.60 1.59 1.57 1.53 1.48 1.42 1.37 1.44 1.46 1.43 1.47 1.58 1.57 1.54 1.58 1.69 1.87 1.91 1.78 1.75 1.73 1.63 1.52 1.48 1.54 1.65 1.73 1.73 1.71 1.69 1.64 1.65 1.67 1.69 1.67 1.63 1.60 1.66 1.72 1.72 1.66 1.63 1.61 1.54 1.52 1.46 1.43 1.47 1.47
2.00 2.05 2.04 2.04 2.03 2.02 2.01 1.98 1.91 1.93 1.93 1.93 1.91 1.82 1.81 1.76 1.64 1.62 1.60 1.61 1.64 1.71 1.81 1.81 1.75 1.73 1.78 1.81 1.76 1.66 1.67 1.67 1.65 1.65 1.66 1.67 1.65 1.61 1.57 1.51 1.47 1.42 1.42 1.48 1.41 1.42 1.47 1.54 1.62 1.62 1.64 1.70 1.80 1.91 1.98 1.96 1.83 1.68 1.54 1.49 1.50 1.52 1.52 1.62 1.70 1.66 1.59 1.52 1.56 1.68 1.82 1.86 1.75 1.67 1.69 1.73 1.74 1.73 1.69 1.67 1.62 1.53 1.41 1.32 1.29
1.99 2.02 2.03 2.06 2.09 2.09 2.08 2.04 2.00 1.97 1.98 1.98 2.03 2.04 1.96 1.93 1.85 1.81 1.71 1.68 1.66 1.67 1.70 1.78 1.85 1.81 1.76 1.73 1.67 1.71 1.81 1.86 1.85 1.85 1.82 1.79 1.78 1.75 1.70 1.62 1.55 1.48 1.51 1.47 1.46 1.45 1.44 1.46 1.51 1.52 1.54 1.61 1.73 1.79 1.80 1.78 1.68 1.58 1.50 1.43 1.42 1.41 1.42 1.53 1.63 1.66 1.70 1.71 1.68 1.67 1.73 1.83 1.88 1.85 1.77 1.75 1.75 1.73 1.67 1.55 1.48 1.51 1.37 1.25 1.29
2.01 1.99 1.97 2.02 2.08 2.10 2.05 2.00 1.98 1.96 1.95 1.94 2.00 2.05 2.06 2.04 1.99 2.00 1.91 1.86 1.80 1.76 1.75 1.75 1.83 1.88 1.86 1.78 1.70 1.65 1.78 1.85 1.86 1.86 1.83 1.85 1.87 1.85 1.85 1.77 1.67 1.64 1.69 1.71 1.61 1.53 1.46 1.45 1.45 1.47 1.53 1.63 1.75 1.77 1.78 1.83 1.77 1.63 1.47 1.40 1.38 1.39 1.49 1.62 1.66 1.73 1.78 1.78 1.80 1.79 1.77 1.77 1.83 1.86 1.85 1.80 1.78 1.79 1.69 1.54 1.70 1.73 1.54 1.46 1.36
1.96 1.97 1.97 1.99 2.02 2.04 2.03 1.99 1.97 1.96 1.94 1.99 2.03 2.03 2.01 1.96 1.96 2.00 2.03 2.02 2.00 1.98 1.94 1.92 1.92 1.93 1.89 1.87 1.92 1.86 1.81 1.82 1.88 1.91 1.89 1.88 1.88 1.90 1.90 1.86 1.78 1.75 1.70 1.69 1.74 1.70 1.57 1.51 1.51 1.56 1.62 1.71 1.79 1.78 1.74 1.75 1.74 1.69 1.62 1.52 1.45 1.50 1.64 1.72 1.72 1.71 1.74 1.76 1.79 1.84 1.85 1.90 1.89 1.83 1.82 1.85 1.85 1.88 1.91 1.81 1.83 1.80 1.69 1.67 1.64
1.90 1.94 1.96 2.00 2.00 2.00 2.02 1.97 1.96 1.97 1.96 1.98 2.00 1.99 2.00 1.95 1.90 1.90 1.94 1.98 1.97 1.98 1.98 1.95 1.93 1.95 1.99 1.97 1.95 1.95 1.89 1.86 1.91 1.93 1.95 1.96 1.95 1.90 1.86 1.81 1.80 1.83 1.84 1.77 1.72 1.78 1.83 1.79 1.77 1.74 1.69 1.70 1.72 1.77 1.76 1.72 1.68 1.70 1.76 1.76 1.70 1.64 1.74 1.72 1.74 1.78 1.78 1.79 1.81 1.87 1.90 1.91 1.92 1.94 1.95 1.91 1.95 2.06 2.04 1.95 1.92 1.90 1.83 1.84 1.86
1.76 1.79 1.85 1.87 1.87 1.86 1.86 1.86 1.86 1.89 1.92 1.92 1.95 1.97 2.01 1.93 1.89 1.85 1.80 1.82 1.89 1.95 1.96 1.98 1.97 1.97 1.96 1.96 1.98 1.98 1.99 1.92 1.89 1.89 1.91 1.93 1.95 1.94 1.89 1.87 1.90 1.93 1.88 1.89 1.89 1.86 1.87 1.95 1.93 1.90 1.87 1.85 1.83 1.82 1.79 1.79 1.80 1.80 1.87 1.87 1.85 1.84 1.82 1.73 1.74 1.80 1.85 1.91 1.93 1.93 1.94 1.91 1.93 1.97 1.99 1.92 1.90 1.97 2.07 2.11 2.11 2.04 1.93 1.84 1.78
1.63 1.65 1.68 1.70 1.69 1.68 1.67 1.68 1.68 1.70 1.75 1.79 1.79 1.79 1.80 1.78 1.73 1.68 1.69 1.68 1.67 1.74 1.83 1.84 1.80 1.81 1.82 1.88 1.88 1.84 1.86 1.86 1.85 1.84 1.84 1.84 1.86 1.91 1.92 1.92 1.97 1.99 1.98 1.88 1.91 1.92 1.92 1.96 1.97 1.93 1.87 1.84 1.86 1.85 1.85 1.77 1.72 1.70 1.76 1.81 1.81 1.80 1.84 1.86 1.88 1.95 1.99 2.00 2.00 1.99 1.98 1.94 1.89 1.93 1.92 1.92 1.92 1.91 1.88 1.79 1.80 1.84 1.84 1.80 1.68
1.48 1.51 1.55 1.57 1.59 1.60 1.60 1.57 1.55 1.57 1.63 1.67 1.67 1.69 1.69 1.67 1.67 1.62 1.58 1.56 1.57 1.58 1.60 1.61 1.61 1.61 1.66 1.70 1.75 1.76 1.77 1.79 1.77 1.73 1.70 1.68 1.68 1.69 1.72 1.76 1.84 1.93 1.86 1.79 1.77 1.78 1.86 1.90 1.86 1.77 1.70 1.66 1.67 1.73 1.75 1.71 1.60 1.60 1.56 1.59 1.65 1.74 1.82 1.86 1.94 1.98 1.87 1.76 1.72 1.71 1.73 1.75 1.75 1.74 1.77 1.73 1.65 1.52 1.42 1.47 1.56 1.64 1.64 1.62 1.62
1.33 1.34 1.36 1.39 1.45 1.49 1.52 1.50 1.51 1.50 1.47 1.52 1.51 1.51 1.55 1.57 1.57 1.61 1.63 1.63 1.59 1.51 1.56 1.57 1.57 1.54 1.54 1.60 1.64 1.65 1.65 1.65 1.66 1.67 1.67 1.63 1.57 1.54 1.54 1.54 1.56 1.60 1.64 1.61 1.62 1.58 1.51 1.51 1.54 1.53 1.50 1.47 1.46 1.49 1.53 1.53 1.41 1.38 1.41 1.45 1.49 1.54 1.61 1.69 1.67 1.58 1.49 1.46 1.45 1.41 1.38 1.43 1.44 1.42 1.40 1.37 1.37 1.35 1.35 1.36 1.37 1.40 1.36 1.38 1.43
1.21 1.24 1.27 1.30 1.33 1.39 1.45 1.50 1.45 1.44 1.44 1.38 1.33 1.37 1.44 1.43 1.39 1.43 1.44 1.43 1.43 1.42 1.37 1.44 1.45 1.45 1.47 1.44 1.43 1.43 1.41 1.41 1.44 1.46 1.44 1.44 1.44 1.40 1.36 1.34 1.34 1.33 1.30 1.29 1.30 1.30 1.27 1.20 1.13 1.11 1.09 1.09 1.07 1.10 1.16 1.20 1.12 1.05 1.09 1.08 1.07 1.08 1.23 1.25 1.19 1.14 1.14 1.10 1.02 0.95 0.90 0.92 0.96 1.01 1.03 1.10 1.14 1.15 1.18 1.23 1.23 1.19 1.20 1.15 1.03
1.07 1.08 1.13 1.18 1.24 1.28 1.31 1.38 1.40 1.39 1.40 1.43 1.41 1.40 1.44 1.45 1.37 1.31 1.33 1.31 1.19 1.19 1.19 1.23 1.23 1.23 1.24 1.29 1.27 1.23 1.28 1.30 1.28 1.24 1.28 1.28 1.20 1.12 1.08 1.01 0.99 1.00 0.98 0.95 0.91 0.95 0.97 0.96 0.93 0.89 0.88 0.84 0.87 0.86 0.94 0.99 0.99 0.91 0.94 0.96 0.84 0.88 0.99 0.92 0.91 0.91 0.85 0.81 0.74 0.69 0.70 0.77 0.79 0.81 0.88 0.86 0.83 0.95 1.01 0.98 0.93 0.88 0.82 0.78 0.79
0.89 0.92 0.96 1.02 1.07 1.12 1.17 1.22 1.19 1.22 1.15 1.19 1.28 1.32 1.37 1.32 1.20 1.32 1.35 1.29 1.19 1.13 1.11 1.05 1.06 1.06 1.01 1.08 1.16 1.13 1.25 1.21 1.17 1.12 1.08 1.05 1.04 0.99 0.92 0.83 0.83 0.82 0.79 0.76 0.74 0.74 0.77 0.82 0.86 0.85 0.84 0.78 0.79 0.83 0.87 0.91 0.92 0.89 0.86 0.83 0.73 0.83 0.84 0.79 0.80 0.75 0.70 0.64 0.60 0.60 0.64 0.69 0.69 0.67 0.66 0.69 0.73 0.79 0.79 0.72 0.65 0.63 0.69 0.73 0.68
0.84 0.85 0.88 0.92 0.96 0.98 0.97 1.02 1.00 0.92 1.07 1.14 1.13 1.10 1.12 1.14 1.08 1.04 1.03 1.04 1.01 1.00 1.05 0.99 1.00 1.01 1.03 1.06 1.08 1.15 1.17 1.15 1.11 1.06 1.04 1.01 0.97 0.90 0.80 0.76 0.75 0.74 0.72 0.71 0.70 0.72 0.75 0.85 0.90 0.90 0.87 0.77 0.76 0.82 0.93 0.88 0.88 0.81 0.79 0.78 0.65 0.78 0.77 0.75 0.79 0.72 0.66 0.59 0.57 0.60 0.63 0.61 0.55 0.58 0.61 0.60 0.62 0.62 0.62 0.58 0.58 0.60 0.64 0.61 0.57
0.78 0.80 0.82 0.84 0.85 0.83 0.85 0.85 0.98 0.94 0.88 0.95 0.99 1.00 1.01 1.00 0.97 0.97 1.02 1.03 1.01 0.98 0.95 0.93 0.93 0.95 0.96 0.97 0.99 0.98 0.98 0.96 0.99 0.99 0.97 0.91 0.84 0.76 0.71 0.69 0.69 0.69 0.68 0.67 0.64 0.67 0.75 0.83 0.85 0.86 0.82 0.69 0.76 0.73 0.74 0.71 0.74 0.73 0.70 0.68 0.62 0.74 0.72 0.72 0.67 0.62 0.58 0.51 0.55 0.59 0.59 0.55 0.57 0.62 0.61 0.60 0.59 0.57 0.59 0.59 0.64 0.61 0.59 0.61 0.56
0.72 0.74 0.70 0.68 0.64 0.66 0.75 0.84 0.95 0.96 0.87 0.91 0.83 0.89 0.96 0.96 0.96 0.92 0.90 0.95 0.95 0.96 0.93 0.87 0.89 0.89 0.87 0.88 0.92 0.88 0.89 0.95 0.96 0.92 0.88 0.85 0.80 0.72 0.68 0.67 0.66 0.64 0.63 0.61 0.60 0.57 0.71 0.72 0.78 0.78 0.75 0.68 0.70 0.72 0.70 0.66 0.68 0.66 0.66 0.67 0.67 0.69 0.67 0.69 0.65 0.61 0.53 0.55 0.61 0.60 0.54 0.56 0.57 0.59 0.58 0.57 0.54 0.55 0.59 0.60 0.58 0.59 0.55 0.52 0.49
0.75 0.71 0.78 0.76 0.75 0.77 0.79 0.74 0.80 0.85 0.88 0.84 0.81 0.76 0.77 0.82 0.85 0.85 0.87 0.84 0.80 0.75 0.79 0.82 0.83 0.84 0.81 0.74 0.77 0.81 0.82 0.83 0.83 0.83 0.81 0.77 0.71 0.67 0.65 0.64 0.63 0.62 0.62 0.57 0.53 0.55 0.64 0.69 0.69 0.72 0.72 0.67 0.67 0.68 0.67 0.62 0.62 0.62 0.61 0.62 0.63 0.64 0.65 0.66 0.63 0.58 0.55 0.59 0.60 0.56 0.56 0.55 0.52 0.54 0.53 0.51 0.51 0.53 0.57 0.60 0.60 0.59 0.56 0.53 0.51
0.79 0.78 0.77 0.77 0.76 0.77 0.80 0.77 0.68 0.72 0.76 0.77 0.75 0.72 0.66 0.67 0.70 0.73 0.73 0.73 0.72 0.69 0.68 0.66 0.67 0.68 0.70 0.71 0.69 0.69 0.71 0.71 0.71 0.70 0.69 0.68 0.68 0.67 0.65 0.64 0.63 0.63 0.64 0.63 0.57 0.58 0.66 0.67 0.67 0.69 0.69 0.65 0.65 0.65 0.63 0.61 0.62 0.62 0.61 0.59 0.57 0.62 0.61 0.61 0.59 0.57 0.59 0.59 0.55 0.53 0.52 0.50 0.52 0.52 0.51 0.53 0.54 0.55 0.56 0.56 0.57 0.56 0.55 0.56 0.57
0.74 0.70 0.66 0.64 0.65 0.66 0.70 0.68 0.69 0.69 0.66 0.63 0.63 0.62 0.69 0.72 0.68 0.69 0.77 0.80 0.78 0.76 0.75 0.76 0.75 0.73 0.69 0.70 0.70 0.68 0.66 0.66 0.66 0.66 0.66 0.66 0.65 0.64 0.64 0.64 0.63 0.63 0.65 0.65 0.61 0.60 0.64 0.65 0.65 0.66 0.66 0.63 0.62 0.62 0.59 0.59 0.59 0.59 0.58 0.57 0.58 0.59 0.59 0.61 0.58 0.59 0.59 0.58 0.54 0.50 0.51 0.53 0.52 0.51 0.54 0.54 0.54 0.52 0.54 0.55 0.56 0.56 0.55 0.53 0.53
0.74 0.69 0.66 0.67 0.59 0.59 0.62 0.62 0.61 0.59 0.60 0.65 0.66 0.63 0.57 0.63 0.69 0.74 0.71 0.70 0.70 0.73 0.76 0.76 0.75 0.74 0.74 0.73 0.72 0.70 0.70 0.68 0.66 0.65 0.65 0.64 0.63 0.63 0.61 0.60 0.61 0.60 0.65 0.66 0.66 0.65 0.66 0.64 0.63 0.63 0.63 0.63 0.64 0.63 0.61 0.61 0.61 0.59 0.59 0.60 0.59 0.60 0.61 0.60 0.57 0.58 0.56 0.52 0.49 0.52 0.54 0.54 0.54 0.53 0.52 0.53 0.54 0.54 0.53 0.53 0.53 0.52 0.52 0.51 0.50
0.75 0.75 0.73 0.72 0.71 0.63 0.67 0.60 0.67 0.62 0.59 0.58 0.61 0.53 0.64 0.63 0.65 0.67 0.67 0.66 0.65 0.63 0.66 0.69 0.73 0.74 0.72 0.71 0.69 0.68 0.66 0.64 0.62 0.61 0.60 0.60 0.59 0.60 0.60 0.55 0.51 0.59 0.67 0.72 0.70 0.70 0.70 0.69 0.67 0.66 0.67 0.66 0.64 0.63 0.62 0.62 0.62 0.62 0.61 0.60 0.59 0.61 0.59 0.56 0.57 0.57 0.53 0.54 0.57 0.57 0.56 0.55 0.57 0.57 0.55 0.52 0.51 0.50 0.51 0.51 0.52 0.52 0.51 0.51 0.52
0.70 0.66 0.65 0.68 0.77 0.77 0.77 0.77 0.74 0.71 0.64 0.58 0.60 0.63 0.64 0.66 0.64 0.62 0.59 0.56 0.57 0.61 0.68 0.70 0.72 0.74 0.73 0.71 0.68 0.66 0.65 0.64 0.60 0.57 0.56 0.55 0.55 0.55 0.50 0.49 0.48 0.50 0.59 0.66 0.69 0.74 0.72 0.69 0.67 0.65 0.64 0.63 0.64 0.65 0.64 0.63 0.62 0.61 0.60 0.60 0.59 0.57 0.55 0.55 0.53 0.53 0.55 0.57 0.57 0.56 0.57 0.57 0.57 0.56 0.55 0.54 0.53 0.52 0.52 0.53 0.53 0.53 0.52 0.51 0.50
0.82 0.75 0.68 0.68 0.77 0.78 0.80 0.77 0.75 0.70 0.65 0.63 0.63 0.64 0.63 0.62 0.61 0.63 0.67 0.69 0.69 0.66 0.67 0.74 0.75 0.72 0.72 0.71 0.70 0.68 0.67 0.62 0.60 0.61 0.60 0.61 0.60 0.59 0.56 0.55 0.52 0.52 0.52 0.57 0.60 0.61 0.59 0.63 0.66 0.65 0.64 0.64 0.64 0.63 0.62 0.60 0.61 0.60 0.60 0.60 0.59 0.56 0.55 0.55 0.55 0.57 0.57 0.55 0.55 0.57 0.56 0.55 0.55 0.55 0.53 0.51 0.51 0.52 0.52 0.53 0.51 0.49 0.48 0.48 0.47
0.85 0.82 0.78 0.75 0.73 0.71 0.69 0.67 0.67 0.64 0.60 0.53 0.52 0.54 0.58 0.62 0.63 0.65 0.65 0.65 0.69 0.69 0.67 0.72 0.75 0.73 0.65 0.67 0.74 0.71 0.66 0.65 0.62 0.63 0.61 0.61 0.61 0.61 0.60 0.62 0.67 0.65 0.69 0.72 0.73 0.72 0.67 0.66 0.67 0.66 0.64 0.63 0.62 0.61 0.60 0.60 0.59 0.58 0.57 0.57 0.57 0.57 0.57 0.57 0.58 0.58 0.58 0.57 0.57 0.56 0.55 0.54 0.53 0.53 0.53 0.51 0.49 0.49 0.49 0.48 0.47 0.46 0.46 0.46 0.46
0.81 0.77 0.75 0.71 0.68 0.72 0.71 0.67 0.72 0.61 0.61 0.57 0.61 0.62 0.64 0.63 0.62 0.62 0.62 0.61 0.61 0.61 0.59 0.59 0.58 0.61 0.69 0.79 0.79 0.74 0.68 0.63 0.57 0.54 0.52 0.54 0.58 0.62 0.63 0.63 0.68 0.72 0.70 0.71 0.73 0.71 0.70 0.69 0.69 0.69 0.68 0.65 0.63 0.63 0.61 0.60 0.59 0.58 0.58 0.56 0.56 0.56 0.56 0.55 0.55 0.56 0.56 0.55 0.56 0.56 0.55 0.55 0.55 0.54 0.53 0.51 0.50 0.48 0.46 0.45 0.45 0.44 0.43 0.43 0.44
0.79 0.76 0.74 0.67 0.60 0.66 0.69 0.70 0.71 0.70 0.69 0.69 0.68 0.70 0.69 0.65 0.57 0.54 0.55 0.60 0.61 0.62 0.62 0.63 0.65 0.66 0.70 0.70 0.68 0.66 0.61 0.57 0.56 0.55 0.53 0.48 0.50 0.58 0.62 0.63 0.64 0.65 0.67 0.69 0.69 0.70 0.71 0.71 0.72 0.70 0.67 0.66 0.63 0.61 0.60 0.59 0.58 0.58 0.58 0.58 0.56 0.55 0.55 0.55 0.55 0.55 0.55 0.56 0.55 0.55 0.54 0.52 0.52 0.51 0.50 0.49 0.48 0.47 0.45 0.44 0.43 0.43 0.44 0.43 0.44
0.78 0.75 0.70 0.64 0.65 0.71 0.68 0.66 0.67 0.67 0.67 0.66 0.66 0.67 0.65 0.63 0.61 0.62 0.63 0.62 0.64 0.65 0.67 0.67 0.68 0.69 0.68 0.65 0.63 0.61 0.57 0.55 0.53 0.52 0.50 0.49 0.49 0.54 0.59 0.61 0.61 0.62 0.64 0.65 0.65 0.65 0.65 0.67 0.69 0.70 0.69 0.67 0.65 0.62 0.60 0.59 0.57 0.56 0.55 0.55 0.54 0.54 0.54 0.54 0.54 0.53 0.53 0.53 0.53 0.52 0.50 0.48 0.48 0.46 0.45 0.46 0.46 0.45 0.44 0.44 0.43 0.42 0.42 0.42 0.42
0.81 0.80 0.76 0.68 0.65 0.68 0.73 0.69 0.69 0.72 0.71 0.71 0.70 0.65 0.65 0.66 0.66 0.64 0.60 0.58 0.60 0.62 0.63 0.64 0.66 0.66 0.64 0.62 0.58 0.56 0.55 0.53 0.52 0.49 0.50 0.52 0.55 0.58 0.60 0.60 0.60 0.61 0.60 0.61 0.62 0.61 0.61 0.60 0.60 0.63 0.65 0.65 0.64 0.63 0.61 0.58 0.57 0.56 0.56 0.55 0.54 0.54 0.53 0.52 0.52 0.51 0.50 0.49 0.49 0.47 0.46 0.46 0.45 0.44 0.44 0.44 0.43 0.43 0.42 0.43 0.43 0.43 0.43 0.43 0.43
0.84 0.85 0.83 0.79 0.72 0.67 0.71 0.76 0.77 0.78 0.76 0.70 0.64 0.63 0.64 0.68 0.71 0.70 0.68 0.67 0.63 0.60 0.60 0.61 0.64 0.65 0.64 0.63 0.61 0.58 0.56 0.55 0.54 0.54 0.55 0.57 0.58 0.57 0.56 0.56 0.57 0.59 0.60 0.61 0.62 0.62 0.62 0.61 0.60 0.60 0.60 0.60 0.60 0.60 0.58 0.58 0.57 0.56 0.55 0.54 0.53 0.53 0.52 0.52 0.50 0.49 0.49 0.48 0.48 0.48 0.48 0.48 0.46 0.45 0.44 0.44 0.44 0.44 0.44 0.44 0.45 0.45 0.45 0.45 0.45
0.85 0.86 0.85 0.83 0.81 0.76 0.76 0.79 0.79 0.80 0.79 0.77 0.78 0.77 0.74 0.71 0.67 0.63 0.60 0.63 0.65 0.65 0.62 0.60 0.61 0.65 0.65 0.63 0.61 0.59 0.58 0.58 0.57 0.57 0.57 0.56 0.56 0.56 0.57 0.58 0.58 0.58 0.59 0.59 0.61 0.63 0.63 0.62 0.61 0.60 0.60 0.60 0.60 0.60 0.59 0.59 0.59 0.58 0.56 0.54 0.53 0.52 0.50 0.49 0.50 0.49 0.49 0.48 0.47 0.47 0.47 0.47 0.47 0.46 0.45 0.44 0.44 0.43 0.44 0.45 0.45 0.45 0.45 0.45 0.45
0.88 0.84 0.81 0.81 0.82 0.81 0.82 0.82 0.83 0.81 0.78 0.79 0.79 0.77 0.75 0.69 0.63 0.62 0.65 0.63 0.61 0.62 0.60 0.59 0.58 0.57 0.58 0.61 0.61 0.59 0.57 0.57 0.56 0.56 0.56 0.56 0.55 0.56 0.57 0.57 0.58 0.58 0.59 0.59 0.59 0.60 0.59 0.59 0.59 0.59 0.58 0.58 0.58 0.58 0.58 0.59 0.59 0.58 0.57 0.56 0.52 0.51 0.50 0.50 0.51 0.52 0.51 0.50 0.48 0.48 0.47 0.47 0.46 0.46 0.46 0.47 0.46 0.45 0.45 0.45 0.45 0.45 0.45 0.45 0.45
0.94 0.88 0.83 0.79 0.78 0.79 0.81 0.81 0.80 0.79 0.79 0.78 0.75 0.71 0.71 0.71 0.70 0.68 0.66 0.65 0.64 0.63 0.62 0.60 0.59 0.58 0.57 0.56 0.55 0.54 0.54 0.55 0.54 0.54 0.53 0.54 0.55 0.56 0.57 0.58 0.58 0.58 0.59 0.58 0.59 0.58 0.58 0.58 0.57 0.57 0.56 0.56 0.57 0.57 0.57 0.57 0.58 0.58 0.58 0.56 0.54 0.54 0.54 0.54 0.54 0.53 0.52 0.51 0.50 0.49 0.48 0.48 0.48 0.48 0.48 0.48 0.47 0.47 0.46 0.46 0.47 0.47 0.47 0.47 0.48
0.86 0.83 0.79 0.77 0.74 0.74 0.75 0.76 0.75 0.74 0.75 0.74 0.71 0.68 0.68 0.71 0.72 0.72 0.70 0.68 0.65 0.61 0.57 0.55 0.54 0.53 0.53 0.53 0.54 0.55 0.55 0.53 0.52 0.52 0.52 0.53 0.54 0.54 0.55 0.55 0.56 0.56 0.56 0.56 0.56 0.56 0.56 0.56 0.56 0.56 0.55 0.55 0.55 0.55 0.55 0.55 0.55 0.56 0.57 0.55 0.54 0.54 0.53 0.54 0.55 0.54 0.53 0.52 0.52 0.51 0.49 0.48 0.48 0.48 0.48 0.48 0.47 0.47 0.47 0.48 0.48 0.49 0.50 0.50 0.50
0.82 0.79 0.76 0.75 0.73 0.72 0.71 0.72 0.71 0.71 0.70 0.68 0.67 0.67 0.66 0.66 0.64 0.64 0.64 0.61 0.59 0.56 0.54 0.52 0.52 0.52 0.52 0.53 0.53 0.52 0.52 0.52 0.51 0.51 0.52 0.52 0.52 0.53 0.54 0.54 0.54 0.54 0.54 0.53 0.54 0.55 0.55 0.55 0.55 0.55 0.54 0.54 0.54 0.54 0.54 0.54 0.55 0.56 0.56 0.55 0.55 0.55 0.54 0.55 0.55 0.55 0.54 0.53 0.53 0.52 0.50 0.49 0.48 0.48 0.47 0.47 0.47 0.48 0.48 0.48 0.49 0.50 0.50 0.51 0.51
0.78 0.74 0.72 0.70 0.69 0.69 0.68 0.68 0.70 0.70 0.69 0.68 0.68 0.67 0.64 0.61 0.60 0.60 0.58 0.56 0.56 0.55 0.53 0.51 0.52 0.52 0.51 0.50 0.49 0.49 0.49 0.49 0.48 0.49 0.49 0.50 0.51 0.51 0.52 0.51 0.51 0.51 0.51 0.51 0.51 0.51 0.52 0.53 0.53 0.53 0.53 0.53 0.53 0.53 0.53 0.54 0.55 0.56 0.57 0.56 0.56 0.56 0.55 0.55 0.55 0.54 0.54 0.54 0.53 0.52 0.51 0.49 0.48 0.48 0.48 0.49 0.49 0.50 0.50 0.50 0.50 0.50 0.51 0.52 0.52
0.71 0.68 0.66 0.66 0.67 0.66 0.67 0.67 0.67 0.68 0.67 0.64 0.62 0.62 0.61 0.58 0.55 0.54 0.56 0.55 0.53 0.52 0.52 0.51 0.50 0.50 0.50 0.49 0.49 0.49 0.48 0.47 0.47 0.48 0.49 0.49 0.50 0.50 0.50 0.50 0.50 0.50 0.50 0.50 0.51 0.51 0.52 0.51 0.51 0.51 0.51 0.52 0.53 0.54 0.54 0.55 0.56 0.57 0.57 0.56 0.56 0.56 0.55 0.54 0.54 0.54 0.53 0.53 0.52 0.51 0.50 0.49 0.49 0.49 0.50 0.50 0.50 0.51 0.50 0.51 0.52 0.52 0.52 0.52 0.53
0.66 0.64 0.64 0.63 0.63 0.64 0.64 0.64 0.64 0.65 0.65 0.64 0.63 0.62 0.60 0.59 0.58 0.57 0.55 0.53 0.51 0.50 0.50 0.51 0.51 0.50 0.50 0.50 0.49 0.48 0.47 0.47 0.47 0.47 0.47 0.47 0.47 0.48 0.48 0.48 0.48 0.48 0.49 0.49 0.49 0.49 0.49 0.50 0.50 0.51 0.52 0.52 0.53 0.54 0.55 0.55 0.58 0.58 0.57 0.56 0.55 0.54 0.54 0.54 0.54 0.53 0.53 0.52 0.52 0.52 0.51 0.50 0.50 0.50 0.50 0.51 0.52 0.52 0.52 0.53 0.54 0.54 0.54 0.55 0.56
Wind_Speed
17 16 16 15 14 14 14 13 13 12 11 11 11 10 10 10 9 9 8 8 8 8 8 8 8 7 7 7 7 6 6 5 5 5 5 5 4 4 3 4 4 3 4 4 4 4 4 5 5 5 5 5 6 6 6 6 6 6 7 7 7 7 7 7 8 9 10 10 10 10 11 11 11 11 11 12 12 12 13 13 13 13 12 12 13
16 16 16 16 15 15 14 14 13 13 12 12 11 11 10 10 10 9 9 9 9 8 8 8 8 8 7 7 7 7 6 6 6 6 5 5 5 5 4 4 4 4 4 4 5 5 5 5 6 6 6 6 6 6 6 7 7 7 7 7 7 8 8 8 8 9 10 11 11 11 11 11 11 12 12 12 12 12 12 12 12 12 12 13 13
17 16 16 16 16 15 15 15 14 14 13 13 12 12 11 11 10 10 9 9 9 9 8 8 8 8 8 8 7 7 7 7 7 6 6 6 6 6 5 5 5 5 5 5 5 5 5 6 6 6 6 6 6 6 7 7 7 7 7 8 8 9 9 9 9 10 11 11 11 11 11 11 12 12 12 12 12 12 12 12 12 12 12 12 12
17 17 17 16 16 16 16 15 15 15 14 14 13 13 12 12 11 11 11 10 9 9 9 9 8 8 8 8 8 8 8 7 7 7 7 7 7 6 6 6 6 6 5 5 5 5 6 6 6 6 6 6 7 7 7 7 7 8 8 8 9 9 9 9 10 10 11 11 12 12 12 12 12 12 12 12 12 11 11 11 11 12 12 11 12
18 17 17 17 16 16 16 16 16 16 15 15 14 14 13 13 12 12 12 11 10 10 10 9 9 9 9 9 9 9 9 8 8 8 8 7 7 7 7 7 7 6 6 6 6 6 6 6 6 6 6 7 7 7 7 7 7 8 8 8 8 9 9 9 10 10 11 12 12 12 12 12 12 11 11 12 12 11 11 11 11 11 11 11 12
18 18 18 18 17 17 17 16 16 16 16 15 15 15 14 14 13 13 13 12 12 11 11 11 10 10 10 10 10 10 10 9 9 9 9 8 8 8 7 7 7 7 7 7 7 7 7 7 7 7 7 7 7 7 7 7 8 8 8 8 8 9 9 10 10 10 11 11 12 12 12 12 12 11 11 11 11 12 12 11 11 11 11 12 12
19 19 18 18 18 18 17 17 17 16 16 16 15 15 15 15 14 14 13 13 13 12 12 12 11 11 11 11 11 11 11 10 10 10 10 9 9 9 9 8 8 8 8 8 8 8 8 8 8 8 8 8 8 8 8 8 8 8 8 9 9 9 10 10 10 10 11 11 12 12 12 12 12 12 12 12 12 12 12 11 11 12 12 12 12
19 19 19 18 18 18 18 17 17 17 17 16 16 16 15 15 15 14 14 14 14 13 13 12 12 12 12 12 12 12 12 12 11 11 11 11 11 10 10 10 10 9 9 9 9 9 9 9 9 9 10 10 9 9 9 9 9 9 9 9 9 10 10 10 11 11 11 11 12 12 12 12 12 12 12 12 12 12 12 12 12 12 12 12 13
17 17 18 18 18 19 19 18 18 17 17 17 17 17 16 16 16 15 15 15 14 14 14 14 13 13 13 13 13 13 13 13 13 12 12 12 12 12 11 11 11 11 11 10 10 10 10 10 10 10 10 10 10 10 10 10 10 10 11 11 11 11 11 11 12 12 12 12 12 12 13 13 13 13 13 13 13 13 13 13 13 13 14 15 15
18 17 18 17 17 18 19 19 19 18 18 18 17 18 17 17 16 16 16 16 15 15 15 15 15 15 14 14 14 14 14 14 14 14 14 13 13 13 13 13 12 12 12 12 12 11 11 11 11 11 11 11 11 12 12 12 12 12 12 12 12 12 12 13 13 13 13 13 13 13 13 13 13 13 14 14 14 14 14 14 15 15 16 16 16
20 19 19 18 18 17 18 18 19 19 18 18 17 17 17 17 16 16 16 16 16 16 16 16 16 16 16 16 15 15 15 15 15 15 15 15 14 14 14 13 13 13 13 13 13 13 13 12 12 12 12 12 13 13 13 13 13 13 13 13 13 13 14 14 14 14 14 14 14 14 14 14 14 15 15 15 15 15 15 16 16 16 17 17 17
21 21 20 19 19 18 17 17 17 18 18 18 18 18 18 17 17 17 17 17 17 16 16 16 16 16 16 16 15 14 15 15 15 15 15 15 16 16 15 15 14 14 14 15 15 14 14 14 14 14 13 13 13 13 13 13 13 14 14 14 14 14 15 15 15 16 16 16 16 16 16 16 16 16 16 16 16 16 16 16 17 17 17 18 18
22 21 21 20 19 19 18 18 17 17 17 18 18 18 19 19 19 18 18 18 18 18 17 17 17 17 17 17 16 15 15 16 16 16 16 16 16 17 17 17 16 16 16 16 16 16 15 15 15 15 15 14 14 14 14 14 15 16 16 16 16 16 17 17 17 17 17 17 17 17 17 17 17 17 17 17 17 17 17 17 17 18 18 19 19
22 22 21 21 20 20 19 20 19 18 18 18 18 18 19 19 19 20 20 19 19 19 19 19 19 19 19 19 18 18 17 17 17 17 17 17 18 18 18 18 18 18 18 17 17 17 16 16 17 17 17 17 17 17 16 16 17 17 17 18 18 18 18 18 18 18 18 18 18 19 18 18 18 17 17 17 17 18 18 19 19 20 20 21 21
23 23 22 22 22 21 21 20 20 20 20 19 18 19 20 20 20 21 21 21 21 20 20 20 20 20 20 20 19 19 19 19 19 19 19 19 19 20 20 20 20 19 19 19 18 18 18 18 18 18 18 18 18 18 18 18 18 19 19 19 19 19 19 19 19 19 19 19 19 20 20 19 19 19 18 19 19 19 20 21 21 22 22 22 22
22 23 23 23 23 23 22 21 21 20 20 19 19 19 19 20 20 21 21 21 21 21 21 21 21 21 21 21 21 21 20 20 20 20 20 20 20 20 21 21 21 21 20 19 19 19 19 19 19 18 19 19 19 20 20 20 20 20 20 20 20 20 20 20 19 19 19 20 20 20 20 20 20 20 20 21 21 22 22 23 23 23 23 23 23
20 21 22 23 23 23 23 23 23 22 21 21 20 19 19 20 20 20 20 21 21 21 21 21 22 22 22 22 22 22 22 21 21 21 21 21 22 22 21 21 21 21 20 20 20 20 20 20 20 19 20 20 20 21 21 22 21 21 21 22 22 22 22 21 20 20 21 21 21 22 22 22 22 22 23 23 23 23 24 24 24 24 24 23 23
17 18 20 20 21 23 24 23 23 23 23 22 21 20 20 20 20 20 20 20 20 20 21 21 22 22 22 22 22 22 23 23 22 22 22 22 23 23 22 22 22 21 21 21 21 21 20 20 20 21 21 21 22 22 22 23 22 22 23 23 23 23 22 22 22 23 23 23 24 24 24 24 24 24 24 25 25 24 24 24 24 24 24 24 24
14 15 16 17 17 20 22 23 22 22 21 21 21 21 20 21 21 20 21 21 20 20 20 20 20 21 21 22 22 22 22 23 23 23 22 22 22 22 22 22 22 22 21 21 21 21 21 21 21 21 22 22 22 23 23 23 23 23 23 23 23 23 23 23 24 24 24 24 25 25 25 25 25 25 25 25 25 25 25 25 24 24 24 24 24
12 12 13 14 15 15 18 20 21 21 21 21 20 20 20 21 20 20 20 20 20 19 20 20 20 20 20 21 21 21 21 21 21 22 22 21 21 22 22 22 22 22 22 22 22 22 22 22 22 23 23 23 24 24 24 23 23 24 24 23 24 24 25 25 25 25 25 25 25 24 24 24 25 25 25 25 25 25 25 25 25 25 25 25 25
10 10 11 12 13 12 13 15 16 18 19 20 20 19 19 19 19 19 19 19 18 17 18 18 18 18 18 18 17 18 18 19 19 19 19 19 19 20 21 21 21 21 22 22 22 22 22 23 23 24 24 24 24 24 24 24 24 24 24 24 24 25 25 25 25 25 25 25 24 24 24 24 24 24 24 24 24 25 25 25 25 25 25 25 26
10 10 10 10 11 11 11 12 13 13 14 15 17 17 17 18 19 19 19 18 17 17 17 17 17 17 16 16 16 16 16 16 16 17 17 17 17 17 18 19 20 20 21 21 22 22 22 22 23 23 22 22 22 22 22 22 22 22 23 23 23 24 24 24 24 24 24 24 24 24 24 24 24 24 24 25 25 25 26 26 26 26 25 25 26
12 11 11 10 9 9 9 10 10 10 11 11 12 13 14 16 17 19 18 17 17 17 17 18 19 19 18 17 17 17 18 17 17 17 17 17 16 16 16 17 18 18 18 19 20 21 21 21 21 21 21 20 20 20 20 20 21 21 22 22 22 22 22 22 22 22 23 23 23 24 24 24 24 24 25 25 25 26 26 27 27 26 26 26 27
12 12 11 10 10 10 9 9 9 9 9 9 9 10 11 12 14 15 17 17 16 16 16 17 18 18 18 17 16 16 17 17 17 17 17 17 17 17 16 17 17 18 18 18 19 19 19 20 20 20 21 21 21 21 21 21 21 21 21 22 22 22 21 21 21 22 22 22 22 23 23 23 24 24 25 25 26 26 26 26 27 27 27 27 27
13 13 13 12 12 12 11 11 11 10 9 9 9 9 9 10 10 11 13 14 14 13 13 13 14 15 16 17 17 17 17 16 16 17 17 17 17 17 17 17 18 18 18 18 18 18 19 20 20 21 21 21 21 21 21 21 21 21 21 21 22 21 21 21 22 22 22 22 23 23 24 24 24 25 25 26 26 26 26 26 26 27 28 28 28
14 14 14 14 14 13 13 13 13 13 12 12 11 11 11 11 11 10 11 11 11 12 12 11 12 13 14 15 16 16 16 16 16 17 17 17 17 17 17 17 18 18 18 19 19 20 20 21 21 21 22 22 22 22 21 21 22 22 22 22 23 22 22 23 23 23 23 24 24 24 25 25 25 26 26 26 26 25 26 26 27 28 28 28 29
15 15 14 14 14 14 14 15 15 15 14 14 13 13 13 13 12 12 12 11 11 12 13 12 12 13 13 13 13 14 14 15 16 17 18 18 18 19 19 19 20 20 20 21 21 22 22 22 22 22 23 23 23 23 22 22 23 23 23 23 24 23 23 24 24 24 25 25 25 25 26 26 26 25 25 26 25 26 26 27 27 28 28 28 28
16 16 16 15 15 15 15 15 16 16 15 15 15 15 14 14 14 14 14 14 14 14 14 14 14 14 14 14 14 14 14 15 17 18 18 19 20 20 20 20 20 21 21 21 22 22 22 22 22 22 22 22 22 22 22 22 22 23 23 23 24 23 23 24 24 24 25 25 25 26 26 26 26 26 26 26 26 27 27 28 28 28 29 29 29
16 17 17 17 17 17 17 17 17 18 17 17 17 17 17 17 17 17 17 17 17 17 17 17 17 17 17 17 17 17 17 17 18 19 19 20 20 20 20 20 21 21 21 22 22 22 22 22 22 22 22 22 22 22 22 22 22 23 23 23 23 23 24 24 24 25 26 26 26 26 26 26 26 27 27 27 28 28 29 29 29 30 30 30 30
17 17 17 18 18 18 18 18 18 19 19 19 19 19 19 19 19 19 19 19 19 20 20 20 20 20 20 20 21 21 20 21 21 21 21 22 22 22 22 22 22 22 22 23 23 22 22 22 22 22 22 22 22 22 22 23 23 23 24 24 24 24 24 25 25 26 27 27 27 27 27 27 28 28 28 29 30 30 30 31 31 31 31 32 32
17 18 18 18 18 19 19 20 20 19 19 20 21 21 21 21 21 22 22 21 22 22 22 23 23 23 23 23 24 24 24 24 24 24 25 25 25 24 24 24 24 24 24 24 23 23 23 23 23 23 23 23 23 23 24 24 24 24 25 25 25 25 25 26 27 28 28 28 28 29 29 29 30 30 31 31 32 32 32 32 32 33 33 33 34
19 19 19 20 19 19 20 20 21 21 21 22 22 22 22 23 23 23 23 23 23 23 23 23 24 24 24 24 25 26 26 26 26 26 26 26 26 26 26 26 26 26 25 25 25 25 25 24 24 24 24 24 25 25 25 25 26 26 26 26 27 27 27 28 29 30 29 29 30 31 31 31 32 32 32 33 33 33 33 34 34 34 35 35 35
20 20 21 21 21 21 21 21 22 22 22 22 23 23 24 24 24 24 24 24 23 23 23 23 24 24 24 24 25 25 26 27 27 26 26 26 27 27 27 27 27 27 26 26 26 26 26 26 26 26 26 26 26 27 27 27 27 28 28 28 28 29 30 31 31 31 31 31 32 33 33 33 34 34 34 34 35 35 35 35 36 36 37 37 37
21 21 21 21 22 22 23 23 22 23 23 23 23 23 23 24 24 24 24 24 24 24 24 24 24 24 24 24 24 25 26 26 27 27 27 27 27 27 27 27 28 27 26 26 27 27 27 27 27 27 27 28 28 28 28 29 29 29 29 30 30 31 31 32 32 32 33 34 34 34 34 35 35 35 36 36 36 37 37 37 38 38 39 39 40
21 21 21 22 22 23 23 23 23 23 24 24 24 24 24 24 25 25 25 25 25 25 25 25 25 25 25 25 25 25 26 26 27 28 28 28 28 28 28 28 28 28 27 27 28 28 28 28 28 28 28 29 29 29 29 30 30 30 31 31 32 32 33 33 34 34 35 35 35 35 36 36 36 37 37 38 38 39 39 39 40 40 41 41 42
22 22 22 22 23 23 23 23 24 24 24 25 25 25 25 25 25 26 26 26 26 26 26 26 26 26 26 26 26 26 26 27 27 27 28 28 28 28 28 28 28 28 28 28 28 29 29 29 29 29 29 30 30 30 30 31 31 32 32 33 33 34 34 35 35 36 36 36 37 37 37 38 38 38 39 39 40 40 41 41 41 42 43 43 44
23 23 23 23 23 23 24 24 24 24 25 25 25 26 26 26 26 26 26 27 27 27 27 27 27 27 27 28 27 27 27 27 27 27 26 26 27 27 28 28 28 28 29 29 29 30 30 30 30 30 31 31 31 31 31 32 32 33 34 34 35 36 36 36 37 37 37 38 38 38 39 39 40 40 41 41 41 42 42 43 44 44 45 46 46
24 24 24 24 24 24 25 25 25 25 25 26 26 26 26 26 26 27 27 27 27 27 27 27 28 28 29 28 28 27 28 28 28 27 27 27 27 28 28 28 29 29 30 30 30 30 30 31 31 32 32 32 33 33 33 34 34 35 35 36 36 37 37 37 37 38 38 39 39 40 40 41 41 42 42 42 42 43 44 45 46 46 47 47 48
25 25 25 25 25 25 26 26 26 26 26 26 26 27 27 27 27 27 27 28 28 28 28 28 28 28 28 27 27 28 28 28 28 29 30 30 29 29 29 30 31 31 32 32 32 32 32 32 32 32 32 33 34 34 35 35 36 36 37 37 38 38 38 38 39 39 40 40 40 41 41 41 41 42 42 42 43 44 45 46 47 48 48 49 49
28 27 27 27 27 27 27 27 27 27 27 27 27 27 27 28 28 28 28 28 28 28 29 29 29 28 28 27 28 29 29 29 30 31 32 32 31 30 30 31 31 32 32 33 33 33 34 34 34 34 34 34 35 35 36 36 37 37 38 38 39 39 40 40 40 41 41 41 42 42 42 42 42 42 43 44 45 46 47 47 48 48 49 50 50
30 29 29 29 29 29 28 29 28 28 28 28 28 28 29 29 29 29 29 29 29 29 29 29 29 29 29 29 30 30 31 31 32 32 32 32 31 31 31 31 31 32 32 33 33 34 34 35 35 36 36 37 37 37 37 38 38 38 39 39 40 40 40 41 41 41 42 42 42 42 42 43 43 44 45 45 46 47 47 47 48 49 49 50 51
31 31 31 30 30 30 30 30 30 30 30 30 30 30 30 30 30 30 30 30 30 30 30 30 30 30 30 30 30 31 32 32 32 32 32 31 31 31 31 31 32 32 33 33 33 34 35 35 36 36 37 38 38 38 38 38 39 39 39 40 40 40 41 41 41 41 41 41 42 42 43 44 44 45 46 46 47 48 48 49 49 50 50 51 51
33 32 32 31 31 31 32 31 31 31 31 31 31 31 31 31 31 31 31 31 31 31 31 31 31 31 31 31 31 32 32 32 31 31 31 31 32 32 32 32 33 33 34 34 35 35 35 35 36 36 37 37 38 38 38 39 39 40 40 40 40 40 40 40 40 41 41 42 43 44 45 45 46 46 46 47 48 49 49 50 50 51 51 52 52
35 34 34 33 33 33 33 32 32 32 32 31 31 31 32 32 32 32 32 32 32 32 32 32 32 32 32 32 32 32 31 31 31 31 32 32 33 33 33 33 34 34 35 35 36 36 36 36 36 36 37 37 38 38 39 39 40 40 40 40 40 40 40 40 41 41 42 43 44 44 45 46 47 48 48 49 49 50 50 51 51 52 52 53 53
35 35 35 35 35 35 34 34 33 33 33 33 33 33 33 33 33 32 32 32 32 32 32 32 33 33 33 33 33 32 32 32 32 33 33 33 34 34 34 34 35 35 35 35 36 36 36 37 37 37 38 38 38 38 39 39 39 40 40 41 40 41 41 42 43 43 44 44 45 46 47 47 48 49 50 50 51 51 51 51 52 53 53 54 54
36 36 36 36 36 36 35 35 35 34 34 33 33 33 33 33 33 32 32 32 32 32 32 32 32 33 33 34 34 34 34 33 33 34 34 34 34 34 35 35 36 36 36 36 36 37 37 37 38 38 38 38 38 39 39 40 40 41 41 41 41 41 42 43 44 44 45 46 47 47 48 48 49 50 50 51 51 51 52 52 53 53 54 54 54
38 38 37 36 36 36 35 35 35 35 35 34 34 34 34 33 33 33 32 32 32 32 33 33 33 33 33 34 34 34 34 33 33 34 34 34 34 34 35 35 36 36 36 36 37 37 37 37 38 38 39 39 39 40 40 40 41 41 41 41 41 42 43 43 44 45 46 47 47 48 48 48 49 49 50 51 51 51 52 52 52 52 53 54 54
38 38 37 37 36 36 35 35 35 35 35 34 34 34 33 33 33 33 33 32 32 33 33 33 33 33 33 33 33 33 34 34 34 34 34 34 34 35 35 35 36 36 36 37 37 38 38 38 38 38 39 39 40 40 40 40 41 41 41 40 41 42 42 43 44 45 46 46 47 47 48 48 48 49 49 49 49 50 50 50 51 51 52 52 53
37 37 37 36 36 35 35 35 35 35 35 34 34 34 33 33 33 33 33 32 32 32 32 32 32 33 33 33 33 34 34 34 34 34 34 34 34 35 35 35 36 36 36 37 37 37 38 38 38 38 39 39 39 40 40 40 40 40 40 40 41 41 42 43 43 44 45 45 46 46 47 47 47 48 48 48 48 49 49 50 50 50 50 51 51
37 37 36 36 36 36 35 35 35 34 34 34 34 33 33 33 33 33 32 32 32 32 32 32 32 32 32 33 33 33 33 34 34 34 34 34 34 35 35 35 35 36 36 36 36 37 37 37 38 38 38 38 39 39 39 39 39 39 39 40 41 41 42 42 43 44 44 45 45 46 46 46 47 47 47 47 47 48 48 49 49 49 49 48 48
36 36 37 36 36 36 35 35 35 34 34 34 33 33 33 33 32 32 32 32 32 32 32 32 32 32 32 32 32 33 33 33 33 33 34 34 34 35 35 35 35 35 36 36 36 36 37 37 37 37 37 38 38 38 39 39 38 38 39 40 41 41 42 42 43 43 44 44 45 45 46 46 46 46 46 46 47 47 47 47 47 46 45 45 45
Wind_Direction
204 204 205 204 204 205 204 203 202 201 202 201 202 203 204 205 207 209 211 212 213 214 216 216 217 218 218 219 221 221 222 223 223 225 226 229 234 237 239 240 248 256 256 255 256 258 261 261 263 264 264 267 269 270 275 277 277 279 280 282 284 287 288 288 292 298 302 304 305 306 308 309 310 312 312 312 312 313 314 316 317 318 319 319 320
207 207 207 207 207 208 207 208 207 206 207 208 207 208 208 208 209 211 213 214 214 216 217 217 218 218 218 221 223 223 226 227 228 230 231 235 239 242 246 250 255 259 261 263 264 265 268 268 270 271 270 272 275 276 277 277 280 283 284 284 287 290 292 292 293 298 302 304 305 306 308 309 308 310 311 311 312 314 315 317 317 318 318 318 320
210 210 210 209 210 211 211 211 211 211 212 213 213 213 213 212 213 214 216 217 218 219 219 220 222 222 221 225 225 225 228 230 232 234 235 239 242 244 249 254 258 261 264 266 267 270 272 272 275 276 275 277 278 279 279 279 281 284 286 288 288 291 293 293 294 297 301 304 306 306 308 308 308 309 311 312 313 314 315 316 316 317 317 317 319
212 213 213 213 213 213 214 214 214 214 215 217 217 217 217 217 218 218 219 221 222 222 222 223 226 227 226 228 228 228 230 233 236 237 239 242 245 246 249 252 258 264 267 269 269 271 272 273 277 277 278 280 279 278 280 282 283 283 285 288 289 292 294 292 294 297 300 302 305 307 308 309 309 310 311 312 313 312 313 314 316 318 317 317 318
214 214 214 215 216 217 217 217 218 217 218 219 220 220 221 221 221 222 222 224 224 225 226 227 229 231 232 232 232 232 233 236 238 238 241 244 247 249 250 252 257 263 267 271 272 272 272 272 275 276 277 279 280 280 281 283 284 285 286 289 290 293 294 294 296 298 299 301 305 307 309 310 310 310 309 310 311 312 313 313 315 318 318 317 317
215 216 216 217 219 220 221 221 221 221 221 222 221 222 224 223 224 225 225 227 227 228 229 230 231 234 236 236 237 237 238 240 241 239 240 243 246 250 253 254 259 262 266 270 272 273 275 273 274 275 276 277 279 280 281 283 285 286 287 289 290 292 294 296 298 299 300 301 303 306 308 309 309 309 308 309 310 311 312 312 313 315 315 314 315
217 219 220 220 221 222 223 224 225 225 225 225 225 225 226 226 227 227 228 230 231 231 232 232 234 237 239 239 239 241 242 242 243 243 243 244 245 249 253 255 259 263 267 270 272 273 275 275 276 277 276 276 276 277 278 281 284 286 288 290 291 293 295 297 298 299 301 302 303 305 306 307 309 310 310 309 308 308 310 310 310 313 315 316 317
219 221 223 224 224 224 225 226 227 228 228 228 229 229 229 229 230 231 232 234 234 234 235 237 238 238 241 242 241 242 244 245 246 246 247 248 248 250 253 256 258 261 264 269 271 272 274 274 275 275 274 272 272 274 277 279 282 284 286 288 290 292 294 295 297 299 300 301 303 304 305 306 307 308 308 308 307 309 310 310 311 315 318 318 317
221 224 226 228 228 228 228 228 229 230 230 230 231 231 232 233 233 234 235 235 236 238 239 240 240 241 244 245 244 245 246 246 247 249 249 251 251 252 254 256 259 261 263 266 269 271 272 272 273 276 277 273 269 270 274 277 280 283 284 285 287 290 292 293 295 297 298 299 300 302 302 303 305 306 307 308 310 311 312 312 313 314 315 315 314
225 227 230 231 232 232 232 231 231 231 231 232 232 232 233 235 236 237 237 237 239 241 241 241 243 244 245 245 247 248 248 249 250 250 250 252 253 254 255 257 259 262 264 265 267 269 270 271 273 276 278 276 272 270 272 275 278 280 281 282 284 287 289 291 293 294 296 296 297 299 299 300 302 304 306 307 308 309 310 311 311 311 312 313 314
226 227 230 233 234 235 236 236 234 232 232 233 234 233 233 236 239 239 239 240 241 243 244 244 245 247 247 248 249 248 248 252 255 253 252 254 256 257 258 258 259 262 265 266 267 268 269 270 272 273 275 275 273 272 273 276 278 279 280 281 282 284 287 288 290 291 293 294 295 296 297 297 299 301 302 303 304 306 308 308 308 310 311 312 313
229 229 231 233 233 235 238 239 238 236 235 234 235 234 233 236 239 240 241 242 242 244 245 245 246 248 250 251 252 250 249 253 256 254 254 256 257 258 259 259 261 263 265 267 269 270 269 270 271 272 275 278 278 275 272 273 276 279 281 282 283 284 285 285 286 288 290 291 292 292 293 294 296 298 299 300 301 303 304 304 305 307 308 309 309
231 231 231 233 232 234 237 237 236 236 235 235 236 235 236 238 239 240 241 242 243 243 244 244 245 247 249 251 253 253 254 257 257 256 255 256 257 257 258 260 262 264 266 268 270 271 270 271 271 271 273 277 279 278 275 273 274 277 280 282 284 284 284 283 284 285 287 288 289 290 291 292 294 296 297 298 299 300 301 303 304 304 305 305 305
232 232 232 233 232 234 237 236 234 235 237 238 239 239 239 240 241 241 242 244 245 245 245 246 248 249 250 250 251 252 255 259 260 258 257 257 257 257 258 261 264 265 266 268 270 271 271 271 271 271 272 274 275 276 277 276 276 277 278 280 282 283 283 284 284 285 286 286 287 288 289 290 291 293 295 296 297 298 299 301 302 302 302 301 302
233 233 234 234 234 235 237 237 236 237 238 241 243 243 242 242 243 243 244 245 246 247 247 247 249 251 250 250 250 252 254 257 259 259 259 259 259 258 259 262 264 266 266 267 268 269 270 271 272 272 272 273 274 275 276 277 277 277 278 279 280 282 283 284 285 285 286 286 286 287 287 288 289 290 291 292 293 294 296 297 298 300 300 300 301
235 235 235 235 235 236 238 238 239 239 239 239 242 244 243 242 244 245 245 246 247 248 249 249 250 252 252 251 251 252 255 257 258 259 260 260 260 259 260 262 264 265 266 267 267 267 269 270 271 272 272 273 275 276 276 276 278 278 278 279 279 280 282 283 283 284 284 285 285 285 286 286 287 288 288 289 290 292 293 294 296 298 299 299 300
236 235 235 236 238 239 239 240 240 241 240 240 242 244 244 244 245 245 246 247 248 248 250 251 252 252 253 254 254 253 255 257 258 259 260 261 260 259 260 262 264 265 266 267 267 267 268 269 269 271 272 274 275 277 277 277 278 278 278 279 279 280 281 281 281 282 284 284 284 284 285 286 287 288 289 290 291 291 292 294 295 296 296 297 298
235 234 234 236 238 239 239 240 240 240 241 243 244 245 246 247 247 246 247 248 249 249 250 252 253 254 255 255 255 254 255 257 259 259 260 261 260 259 260 261 263 264 265 266 267 267 267 269 270 271 271 273 274 277 278 278 277 278 279 279 279 279 280 281 281 283 284 284 284 284 284 285 286 287 289 291 292 292 292 293 294 296 296 296 297
234 232 232 234 238 240 240 239 239 239 242 244 245 245 246 247 248 247 248 249 251 250 250 251 254 255 255 255 255 254 255 257 258 259 260 261 260 259 260 261 261 262 264 265 266 266 267 270 271 272 272 273 274 276 278 277 277 278 279 279 278 279 280 281 282 283 284 284 284 284 284 284 285 286 288 289 291 292 292 291 292 294 295 296 296
230 231 233 235 240 242 239 237 238 242 245 246 246 246 246 246 245 246 247 249 251 252 251 251 254 255 255 255 255 255 255 257 258 259 259 261 261 260 260 261 261 262 263 264 265 267 268 270 272 273 274 275 275 276 277 277 276 277 277 278 278 279 280 281 283 284 284 284 284 284 284 284 285 286 286 287 288 290 291 291 291 292 293 294 295
230 233 235 237 240 240 237 236 239 244 248 247 246 245 245 244 243 245 247 246 247 249 250 249 250 252 251 252 254 255 255 255 257 257 258 260 261 261 260 260 261 262 262 264 265 267 269 270 272 274 276 276 276 276 276 276 276 277 278 279 279 280 281 282 283 283 283 283 283 284 284 285 285 286 287 287 287 289 290 291 291 291 291 292 293
232 234 236 239 240 240 239 240 241 244 246 244 242 240 241 243 243 244 246 244 242 245 247 247 246 247 248 250 253 254 254 253 254 255 257 259 261 262 261 260 262 263 263 264 265 267 270 272 273 275 276 277 278 278 277 277 277 278 279 279 280 281 281 282 282 283 283 283 284 284 285 286 287 287 287 288 288 288 289 290 291 291 291 291 292
231 234 236 236 236 235 235 237 241 243 244 243 240 239 242 246 246 245 245 244 243 246 248 249 247 247 248 251 255 256 255 254 255 257 258 260 261 263 264 264 264 264 265 267 267 268 271 273 274 275 276 277 279 280 279 279 279 279 280 280 281 281 282 281 282 283 284 285 285 286 286 287 288 288 288 288 288 288 289 289 290 291 291 291 292
231 234 235 234 233 232 231 232 236 240 242 243 243 245 248 251 250 247 244 243 244 246 248 248 246 244 245 248 252 254 254 254 256 258 260 261 263 265 268 269 268 267 267 269 270 271 272 272 273 275 276 276 277 279 279 280 280 280 280 281 282 282 282 281 282 283 285 285 286 287 288 289 289 289 289 289 289 289 289 289 290 290 291 291 292
237 237 238 237 237 236 236 234 235 237 239 240 241 244 247 248 249 248 243 240 242 245 248 248 246 245 246 248 251 253 254 254 256 259 262 263 266 267 268 269 270 269 267 267 270 272 272 272 272 274 275 276 277 277 277 278 279 279 280 281 281 282 281 282 282 284 285 286 287 288 289 289 290 290 290 290 290 289 289 289 290 291 292 292 293
242 241 241 241 241 241 241 240 240 241 241 241 242 245 246 245 246 246 242 239 240 243 247 250 251 252 252 251 253 255 255 255 257 259 260 263 266 267 268 270 272 272 271 271 273 274 274 273 274 274 276 277 277 276 276 277 278 280 280 280 281 282 282 282 283 284 285 286 288 288 288 289 289 290 290 290 290 290 290 290 291 292 292 293 293
242 243 243 242 242 242 243 244 245 246 248 249 249 249 249 248 248 245 241 240 244 246 247 249 252 255 254 253 255 256 254 255 258 260 261 265 268 271 272 273 274 275 275 275 276 276 276 277 277 278 278 278 277 277 276 276 278 280 281 282 282 282 283 284 284 284 286 287 288 287 288 288 289 289 290 290 290 290 291 292 292 292 292 293 293
242 243 243 243 243 244 245 247 249 250 252 253 253 252 252 251 251 249 248 250 252 252 251 251 253 255 255 255 256 256 255 256 259 261 263 265 268 270 272 272 273 273 274 274 275 275 275 275 275 276 277 277 277 277 276 276 277 279 280 282 282 282 283 284 284 285 287 288 287 287 288 288 289 290 290 290 291 292 292 293 293 293 293 294 294
242 244 245 247 248 248 248 249 252 253 254 255 255 254 255 255 255 255 257 259 259 258 258 259 259 260 259 258 257 258 259 260 261 263 265 266 267 269 270 270 271 272 273 274 274 273 273 273 273 273 274 275 276 276 276 276 277 278 279 280 281 281 282 283 283 286 288 289 288 288 289 290 290 290 290 291 292 293 293 293 293 294 294 294 294
246 247 248 250 251 252 252 252 253 254 255 256 257 256 256 258 259 259 260 262 263 263 263 263 264 265 265 263 263 264 264 265 266 268 269 271 272 273 273 273 274 274 276 277 276 273 273 274 274 274 274 275 276 276 276 277 278 279 279 280 281 281 282 283 284 286 288 288 288 289 290 290 290 291 291 291 292 293 293 293 293 293 294 294 293
250 251 251 251 252 254 255 255 254 254 254 256 257 258 258 259 261 262 263 263 264 265 265 264 265 267 267 267 268 269 269 269 270 272 273 274 275 276 277 277 277 278 279 279 278 276 275 276 276 276 276 277 278 278 279 279 280 281 281 281 282 283 283 284 285 287 288 287 288 289 290 290 291 291 291 291 292 292 292 293 293 293 293 293 293
253 253 253 253 253 254 255 256 256 256 256 256 258 259 260 261 262 264 265 266 267 267 267 266 267 267 267 268 269 270 270 271 271 272 274 275 276 277 277 278 279 279 279 280 279 277 276 277 277 277 278 279 279 280 280 281 281 282 283 283 283 284 284 285 287 288 288 288 289 290 290 290 291 291 291 291 291 292 292 292 292 292 292 292 292
252 254 255 255 255 255 256 258 258 258 258 259 259 260 260 261 263 264 266 267 267 268 268 269 268 268 268 269 269 269 270 270 271 272 273 274 275 276 276 277 278 278 278 280 280 278 277 278 279 279 279 280 280 281 281 282 282 283 283 284 284 284 285 286 287 288 287 288 289 290 290 290 291 291 291 291 291 292 292 292 292 292 292 292 292
254 255 256 256 255 256 257 259 260 260 260 260 260 260 260 261 262 263 264 266 266 267 268 269 269 269 270 270 270 270 270 271 271 272 272 273 274 275 276 277 277 276 276 278 278 277 277 278 279 279 280 280 280 281 282 282 283 283 284 284 284 285 286 287 287 287 288 289 290 289 290 290 291 291 291 291 291 291 292 292 292 292 292 292 293
255 256 257 257 257 257 258 259 259 260 261 261 261 261 262 262 261 262 264 265 266 266 267 268 268 269 270 272 271 271 271 272 272 272 273 273 274 275 276 277 277 276 275 276 276 275 276 278 278 279 280 280 280 281 282 282 283 284 284 285 285 286 287 287 288 288 289 289 289 289 289 290 290 290 291 291 291 291 291 292 292 292 292 292 292
257 257 258 258 258 258 259 259 260 261 262 262 261 262 263 264 263 263 264 265 266 266 267 267 267 268 270 271 272 272 273 273 274 274 274 274 275 275 276 277 277 276 276 275 275 275 276 277 278 278 279 279 280 281 282 282 283 284 284 285 286 286 287 288 288 289 289 289 289 289 289 290 290 290 291 291 291 291 291 291 291 291 291 291 291
259 259 258 258 259 260 260 261 262 262 263 263 263 263 263 264 265 266 266 266 266 266 266 266 267 268 269 270 271 272 274 274 275 275 275 275 275 275 275 276 277 277 276 276 276 276 276 277 278 278 279 279 280 281 282 283 283 284 284 285 286 286 287 287 288 288 288 289 289 289 289 290 290 290 290 291 291 291 291 291 291 291 291 291 291
259 259 258 259 260 260 261 261 262 262 263 263 264 264 264 265 266 266 267 268 268 268 267 267 267 268 270 270 270 271 273 274 275 275 275 275 275 275 275 275 276 276 277 277 277 277 278 278 279 279 279 279 280 281 282 283 284 284 285 285 285 286 286 287 287 287 288 288 288 288 289 289 290 290 290 290 291 291 291 291 291 291 291 292 292
260 259 259 260 260 261 261 262 262 262 263 263 263 264 264 265 266 266 267 268 268 268 269 269 269 270 270 269 269 270 272 274 275 276 277 276 276 276 275 275 275 276 277 278 278 278 278 279 279 280 280 280 280 281 281 282 283 284 284 285 285 285 286 286 287 287 288 288 288 288 289 289 289 289 289 289 290 290 290 291 291 291 292 292 291
259 260 260 261 261 262 263 263 263 263 263 263 263 263 264 265 266 266 267 267 268 268 269 269 270 270 270 270 270 271 273 274 275 276 277 277 276 275 276 276 276 276 277 278 278 278 278 278 278 279 280 280 281 281 282 282 283 283 284 284 284 285 285 286 286 287 287 288 288 288 289 289 289 289 289 289 289 289 290 290 291 291 291 291 291
259 260 260 261 262 263 263 263 263 264 264 264 264 264 264 265 266 266 267 267 268 268 269 269 269 270 270 271 272 273 274 275 276 276 277 277 276 275 276 276 277 277 278 279 279 279 279 279 278 279 279 280 281 282 282 283 283 284 284 284 285 285 286 286 286 287 287 287 288 288 288 288 288 288 289 289 289 290 290 290 290 291 291 291 291
258 259 259 260 261 262 263 263 263 264 265 265 266 266 266 266 267 267 267 267 268 269 269 269 269 270 271 272 273 275 276 276 277 277 277 277 276 276 277 277 277 277 278 279 279 280 280 279 279 279 279 280 281 282 282 283 283 284 284 285 285 286 286 286 287 287 287 287 287 288 288 289 289 289 289 290 290 290 290 290 290 290 290 290 290
258 258 259 260 260 261 262 263 263 264 265 266 266 266 266 266 267 267 268 268 268 269 269 270 270 270 271 272 274 275 276 276 277 277 276 276 277 278 278 278 278 279 279 279 280 281 281 280 280 280 280 281 282 282 283 284 284 285 285 285 286 286 286 286 287 287 287 287 287 288 288 289 289 290 290 291 291 291 291 291 291 291 291 290 291
258 258 259 260 260 261 262 262 263 264 265 265 266 266 266 266 267 267 268 268 269 269 269 270 271 271 272 273 275 275 275 276 276 276 276 276 277 278 278 279 279 280 280 280 281 281 281 281 280 280 281 282 282 283 283 284 284 284 284 285 285 285 285 286 286 286 287 287 287 288 288 288 289 289 290 290 291 291 291 292 292 292 291 291 291
257 258 259 259 260 260 261 261 262 263 263 264 265 266 266 267 267 267 267 268 268 269 270 271 271 272 272 273 274 274 275 275 276 276 277 277 277 278 278 279 280 280 281 282 282 282 282 282 281 281 281 282 282 283 283 284 284 284 284 284 284 284 285 286 286 287 287 287 287 288 288 289 289 289 290 290 291 291 291 291 291 291 291 291 291
257 258 259 259 259 259 260 260 261 262 262 263 264 265 265 266 266 266 266 267 268 269 270 271 271 272 273 273 274 274 275 275 276 277 277 278 278 278 279 280 280 281 281 282 282 282 282 282 282 282 282 282 283 283 284 284 284 285 285 285 284 285 286 287 287 287 288 288 289 289 289 290 290 291 291 291 291 291 291 291 292 292 292 292 292
257 258 258 258 258 258 259 259 260 261 262 263 264 264 265 265 265 265 265 266 267 268 269 270 271 272 273 273 274 275 275 275 276 277 277 278 278 279 279 280 281 281 281 282 282 282 282 283 283 283 283 283 283 284 284 284 285 285 285 285 285 286 287 287 288 288 289 290 290 291 291 291 291 291 292 292 292 292 292 292 293 293 293 293 293
257 257 257 257 258 258 258 259 259 260 261 262 263 263 264 265 265 265 265 266 267 268 269 269 270 271 271 272 273 274 274 275 276 276 277 278 278 279 279 280 280 280 281 282 282 282 282 283 283 283 283 283 284 284 285 285 285 285 285 285 286 287 288 288 289 289 290 291 292 292 292 292 292 292 292 293 293 293 293 293 293 293 293 293 294
256 256 256 256 257 257 258 258 259 260 261 261 262 262 263 264 265 265 265 266 267 267 268 268 269 270 271 271 272 273 274 275 276 277 278 278 279 279 280 280 280 281 281 282 282 282 282 283 283 283 283 283 284 284 284 285 285 285 285 286 287 288 289 289 290 291 291 292 293 293 293 293 292 292 293 293 293 293 293 293 293 293 294 294 294
256 256 256 256 256 256 257 257 258 259 260 261 261 262 263 263 263 264 265 265 266 267 267 268 268 269 270 271 272 273 274 275 276 277 278 278 279 279 280 280 281 281 281 282 282 282 283 283 283 284 284 284 284 285 285 285 285 285 286 286 287 288 289 289 290 291 292 293 293 293 293 293 293 293 293 293 292 293 293 293 294 294 294 294 294
255 255 255 255 255 255 256 257 258 258 259 260 261 262 262 262 263 264 264 265 265 266 267 268 268 270 271 272 272 273 274 275 276 277 277 278 278 279 279 280 281 281 281 282 282 282 283 283 284 284 284 284 285 285 285 285 285 286 286 287 288 289 289 290 290 291 292 293 293 293 293 293 293 293 293 293 293 293 294 294 294 294 295 295 295